Terminal Aerodrome Forecast
Issued by NWS

Home | Current Version | Previous Version | Text Only | Print | Product List | Glossary On
Versions: 1 2 3 4 5 6 7 8 9 10 11 12 13 14 15 16 17 18 19 20 21 22
000
FTUS43 KIND 270200 AAB
TAFLAF
TAF AMD
KLAF 270243Z 2703/2724 02007KT P6SM BKN015 OVC080
     FM271200 32009KT P6SM OVC015
     FM272000 30012KT P6SM OVC025
      AMD LTD TO CLD VIS AND WIND TIL 271400=

USA.gov is the U.S. government's official web portal to all federal, state and local government web resources and services.